This demonstration page uses our WeatherBlox Daily Observations layout. Learn more.

Left ArrowRight Arrow

47.50024, -111.30081

Hourly Observations for May 15, 2017

Temp ( °F °C ) Dew Point ( °F °C ) Humidity (%) Winds ( mph kmh ) Pressure ( in mb ) Visibility ( mi km ) Precip ( " mm )
12:53 am 00:53 Cloudy 39 3.9 28 -2.2 65 65 SE 5 7 29.94 1014 10 16 0.00 0.00
1:53 am 01:53 Cloudy 42 5.6 27 -2.8 55 55 SSW 8 13 29.94 1014 10 16 0.00 0.00
2:53 am 02:53 Cloudy 46 7.8 24 -4.4 42 42 NW 13 20 29.92 1013 10 16 0.00 0.00
3:35 am 03:35 Cloudy with Light Rain 43 6.1 32 0 65 65 SW 13 20 29.94 1014 10 16 0.00 0.03
3:50 am 03:50 Cloudy with Light Rain 43 6 32 0 66 66 SSE 15 24 29.94 1014 10 16 0.00 0.03
3:53 am 03:53 Cloudy with Light Rain 43 6.1 32 0 65 65 SSE 12 19 29.91 1013 10 16 0.00 0.03
4:00 am 04:00 Cloudy 42 5.6 33 0.6 71 71 SSE 8 13 29.94 1014 10 16 0.00 0.03
4:53 am 04:53 Cloudy 43 6.1 33 0.6 68 68 VRB 6 9 29.91 1013 10 16 0.00 0.03
5:53 am 05:53 Cloudy 41 5 35 1.7 79 79 SSW 6 9 29.91 1013 10 16 0.00 0.00
6:53 am 06:53 Cloudy 42 5.6 33 0.6 71 71 SW 7 11 29.93 1013 10 16 0.00 0.00
7:53 am 07:53 Cloudy 44 6.7 32 0 63 63 SSE 16 26 29.92 1013 10 16 0.00 0.03
8:53 am 08:53 Cloudy 44 6.7 34 1.1 68 68 SSE 12 19 29.93 1014 10 16 0.00 0.00
9:53 am 09:53 Cloudy 47 8.3 34 1.1 61 61 SSE 9 15 29.92 1013 10 16 0.00 0.00
10:53 am 10:53 Cloudy 51 10.6 33 0.6 50 50 SW 7 11 29.90 1012 10 16 0.00 0.00
11:53 am 11:53 Sunny 52 11.1 29 -1.7 41 41 S 7 11 29.88 1012 10 16 0.00 0.00
12:53 pm 12:53 Mostly Sunny 55 12.8 28 -2.2 35 35 VRB 5 7 29.85 1011 10 16 0.00 0.00
1:53 pm 13:53 Sunny 56 13.3 25 -3.9 30 30 VRB 6 9 29.82 1010 10 16 0.00 0.00
2:53 pm 14:53 Mostly Sunny 59 15 26 -3.3 28 28 WSW 12 19 29.78 1008 10 16 0.00 0.00
3:53 pm 15:53 Mostly Cloudy 59 15 27 -2.8 29 29 VRB 6 9 29.78 1008 10 16 0.00 0.00
4:53 pm 16:53 Mostly Cloudy 58 14.4 26 -3.3 29 29 W 7 11 29.75 1008 10 16 0.00 0.00
5:53 pm 17:53 Mostly Cloudy 57 13.9 25 -3.9 29 29 Calm 29.76 1008 10 16 0.00 0.00
6:53 pm 18:53 Cloudy 58 14.4 26 -3.3 29 29 S 5 7 29.75 1007 10 16 0.00 0.00
7:53 pm 19:53 Mostly Cloudy 58 14.4 24 -4.4 27 27 WSW 8 13 29.75 1007 10 16 0.00 0.00
8:53 pm 20:53 Cloudy 53 11.7 29 -1.7 40 40 WNW 3 6 29.77 1008 10 16 0.00 0.00
9:53 pm 21:53 Mostly Clear 48 8.9 28 -2.2 46 46 WNW 7 11 29.78 1009 10 16 0.00 0.00
10:53 pm 22:53 Partly Cloudy 42 5.6 27 -2.8 55 55 WNW 7 11 29.78 1009 10 16 0.00 0.00
11:53 pm 23:53 Mostly Cloudy 42 5.6 28 -2.2 58 58 NNW 6 9 29.78 1009 10 16 0.00 0.00

Powered by AerisWeather